,,,PA_Meas_PMT16A,,PR_Meas_QMR101_102,,RH_Meas_QMH101,,SR_Meas_QMS101,,TA_Meas_QMH101,,GenWind,,GenWind,
date,time,status,PA,status,PR,status,RH,status,SR,status,TA,status,DirAvg,status,SpdAvg,
2009-08-20, 00:00:04,VALID,1006.2,VALID,0,VALID,85.8478,VALID,0,VALID,25.5532,VALID,339,VALID,0.434375,
2009-08-20, 00:01:04,VALID,1006.2,VALID,0,VALID,85.7944,VALID,0,VALID,25.5337,VALID,334,VALID,0.616406,
2009-08-20, 00:02:04,VALID,1006.2,VALID,0,VALID,85.7181,VALID,0,VALID,25.5337,VALID,338,VALID,0.475,
2009-08-20, 00:03:04,VALID,1006.18,VALID,0,VALID,85.8631,VALID,0,VALID,25.5142,VALID,344,VALID,0.480859,
2009-08-20, 00:04:04,VALID,1006.17,VALID,0,VALID,85.6571,VALID,0,VALID,25.5337,VALID,320,VALID,0.743359,
2009-08-20, 00:05:04,VALID,1006.17,VALID,0,VALID,85.6876,VALID,0,VALID,25.5123,VALID,351,VALID,0.814062,
2009-08-20, 00:06:04,VALID,1006.13,VALID,0,VALID,85.802,VALID,0,VALID,25.5337,VALID,346,VALID,0.637109,
2009-08-20, 00:07:04,VALID,1006.12,VALID,0,VALID,85.7791,VALID,0,VALID,25.5532,VALID,349,VALID,0.684375,
2009-08-20, 00:08:04,VALID,1006.11,VALID,0,VALID,85.6952,VALID,0,VALID,25.5318,VALID,336,VALID,0.716797,
2009-08-20, 00:09:04,VALID,1006.07,VALID,0,VALID,85.8096,VALID,0,VALID,25.5532,VALID,353,VALID,0.657812,
2009-08-20, 00:10:04,VALID,1006.08,VALID,0,VALID,85.8402,VALID,0,VALID,25.5337,VALID,349,VALID,0.615234,
2009-08-20, 00:11:04,VALID,1006.06,VALID,0,VALID,85.6571,VALID,0,VALID,25.5532,VALID,346,VALID,0.776953,
2009-08-20, 00:12:04,VALID,1006.05,VALID,0,VALID,85.5579,VALID,0,VALID,25.5318,VALID,351,VALID,1.03672,
2009-08-20, 00:13:04,VALID,1006.05,VALID,0,VALID,85.3901,VALID,0,VALID,25.5707,VALID,355,VALID,0.789063,
2009-08-20, 00:14:04,VALID,1006.02,VALID,0,VALID,85.3977,VALID,0,VALID,25.5902,VALID,329,VALID,0.388672,
2009-08-20, 00:15:04,VALID,1006.02,VALID,0,VALID,85.4129,VALID,0,VALID,25.5902,VALID,357,VALID,0.578906,
2009-08-20, 00:16:05,VALID,1006.01,VALID,0,VALID,85.4129,VALID,0.100563,VALID,25.6097,VALID,256,VALID,0.560156,
2009-08-20, 00:17:04,VALID,1006.02,VALID,0,VALID,85.3748,VALID,0,VALID,25.5902,VALID,350,VALID,0.574219,
2009-08-20, 00:18:05,VALID,1006.01,VALID,0,VALID,85.3061,VALID,0,VALID,25.5902,VALID,348,VALID,1.13945,
2009-08-20, 00:19:05,VALID,1006,VALID,0,VALID,85.1841,VALID,0,VALID,25.6097,VALID,335,VALID,0.476172,
2009-08-20, 00:20:05,VALID,1005.98,VALID,0,VALID,85.3367,VALID,0,VALID,25.6292,VALID,345,VALID,0.650781,
2009-08-20, 00:21:05,VALID,1005.97,VALID,0,VALID,85.4435,VALID,0,VALID,25.6311,VALID,355,VALID,0.504687,
2009-08-20, 00:22:05,VALID,1006,VALID,0,VALID,85.5503,VALID,0,VALID,25.6116,VALID,355,VALID,0.422266,
2009-08-20, 00:23:05,VALID,1005.99,VALID,0,VALID,85.4435,VALID,0.100563,VALID,25.5707,VALID,357,VALID,0.761719,
2009-08-20, 00:24:05,VALID,1005.96,VALID,0,VALID,85.5732,VALID,0,VALID,25.5707,VALID,4,VALID,0.395703,
2009-08-20, 00:25:05,VALID,1005.95,VALID,0,VALID,85.6037,VALID,0,VALID,25.5707,VALID,337,VALID,0.428516,
2009-08-20, 00:26:05,VALID,1005.93,VALID,0,VALID,85.6113,VALID,0,VALID,25.5513,VALID,340,VALID,0.539844,
2009-08-20, 00:27:05,VALID,1005.91,VALID,0,VALID,85.6037,VALID,0,VALID,25.5318,VALID,360,VALID,0.692187,
2009-08-20, 00:28:05,VALID,1005.91,VALID,0,VALID,85.0162,VALID,0,VALID,25.5902,VALID,353,VALID,0.696875,
2009-08-20, 00:29:05,VALID,1005.87,VALID,0,VALID,85.062,VALID,0,VALID,25.6292,VALID,333,VALID,0.487891,
2009-08-20, 00:30:05,VALID,1005.84,VALID,0,VALID,84.8332,VALID,0,VALID,25.6486,VALID,342,VALID,0.320703,
2009-08-20, 00:31:05,VALID,1005.81,VALID,0,VALID,84.8026,VALID,0,VALID,25.6895,VALID,9,VALID,0.646094,
2009-08-20, 00:32:05,VALID,1005.76,VALID,0,VALID,84.6577,VALID,0,VALID,25.709,VALID,348,VALID,0.535937,
2009-08-20, 00:33:05,VALID,1005.72,VALID,0,VALID,84.8103,VALID,0,VALID,25.748,VALID,347,VALID,0.217187,
2009-08-20, 00:34:05,VALID,1005.7,VALID,0,VALID,84.6348,VALID,0,VALID,25.7265,VALID,352,VALID,0.508203,
2009-08-20, 00:35:05,VALID,1005.66,VALID,0,VALID,84.7035,VALID,0,VALID,25.748,VALID,342,VALID,0.419141,
2009-08-20, 00:36:05,VALID,1005.66,VALID,0,VALID,84.6043,VALID,0.100563,VALID,25.7265,VALID,304,VALID,0.359375,
2009-08-20, 00:37:05,VALID,1005.64,VALID,0,VALID,84.6348,VALID,0,VALID,25.746,VALID,308,VALID,0,
2009-08-20, 00:38:05,VALID,1005.62,VALID,0,VALID,84.6958,VALID,0,VALID,25.746,VALID,308,VALID,0.00195313,
2009-08-20, 00:39:05,VALID,1005.62,VALID,0,VALID,84.795,VALID,0,VALID,25.746,VALID,308,VALID,0.0148437,
2009-08-20, 00:40:05,VALID,1005.6,VALID,0,VALID,84.4441,VALID,0,VALID,25.7285,VALID,315,VALID,0.292969,
2009-08-20, 00:41:05,VALID,1005.58,VALID,0,VALID,84.5127,VALID,0,VALID,25.746,VALID,315,VALID,0,
2009-08-20, 00:42:05,VALID,1005.56,VALID,0,VALID,84.4136,VALID,0,VALID,25.7071,VALID,302,VALID,0.472266,
2009-08-20, 00:43:05,VALID,1005.55,VALID,0,VALID,84.4593,VALID,0,VALID,25.7071,VALID,320,VALID,0.188281,
2009-08-20, 00:44:05,VALID,1005.54,VALID,0,VALID,84.4441,VALID,0.100563,VALID,25.7265,VALID,341,VALID,0.466797,
2009-08-20, 00:45:05,VALID,1005.51,VALID,0,VALID,84.2152,VALID,0,VALID,25.7285,VALID,355,VALID,0.422656,
2009-08-20, 00:46:05,VALID,1005.49,VALID,0,VALID,84.2228,VALID,0,VALID,25.7071,VALID,3,VALID,0.758203,
2009-08-20, 00:47:05,VALID,1005.48,VALID,0,VALID,84.383,VALID,0,VALID,25.6876,VALID,354,VALID,0.51875,
2009-08-20, 00:48:05,VALID,1005.49,VALID,0,VALID,84.4822,VALID,0,VALID,25.6486,VALID,341,VALID,0.725391,
2009-08-20, 00:49:05,VALID,1005.46,VALID,0,VALID,84.8332,VALID,0,VALID,25.6681,VALID,350,VALID,0.598047,
2009-08-20, 00:50:05,VALID,1005.45,VALID,0,VALID,85.123,VALID,0,VALID,25.6116,VALID,350,VALID,0.475,
2009-08-20, 00:51:05,VALID,1005.43,VALID,0,VALID,85.4129,VALID,0,VALID,25.5727,VALID,340,VALID,0.480859,
2009-08-20, 00:52:05,VALID,1005.43,VALID,0,VALID,85.7105,VALID,0.100563,VALID,25.4928,VALID,340,VALID,0.494141,
2009-08-20, 00:53:05,VALID,1005.4,VALID,0,VALID,86.0233,VALID,0.100563,VALID,25.4558,VALID,340,VALID,0.0183594,
2009-08-20, 00:54:05,VALID,1005.36,VALID,0,VALID,86.3513,VALID,0,VALID,25.4149,VALID,340,VALID,0.0046875,
2009-08-20, 00:55:05,VALID,1005.36,VALID,0,VALID,86.6031,VALID,0,VALID,25.3565,VALID,340,VALID,0,
2009-08-20, 00:56:05,VALID,1005.35,VALID,0,VALID,86.8548,VALID,0,VALID,25.337,VALID,340,VALID,0.000390625,
2009-08-20, 00:57:05,VALID,1005.33,VALID,0,VALID,86.7327,VALID,0,VALID,25.2981,VALID,324,VALID,0.3375,
2009-08-20, 00:58:05,VALID,1005.33,VALID,0,VALID,86.9464,VALID,0,VALID,25.2786,VALID,323,VALID,0,
2009-08-20, 00:59:05,VALID,1005.3,VALID,0,VALID,86.9769,VALID,0,VALID,25.2592,VALID,323,VALID,0,
2009-08-20, 01:00:05,VALID,1005.3,VALID,0,VALID,87.1905,VALID,0,VALID,25.2202,VALID,324,VALID,0.309766,
2009-08-20, 01:01:05,VALID,1005.29,VALID,0,VALID,87.3965,VALID,0,VALID,25.1813,VALID,333,VALID,0.323438,
2009-08-20, 01:02:05,VALID,1005.28,VALID,0,VALID,87.7016,VALID,0,VALID,25.1423,VALID,343,VALID,0.488281,
2009-08-20, 01:03:05,VALID,1005.26,VALID,0,VALID,88.1365,VALID,0,VALID,25.0644,VALID,343,VALID,0.458984,
2009-08-20, 01:04:05,VALID,1005.26,VALID,0,VALID,88.4645,VALID,0,VALID,24.9885,VALID,356,VALID,0.586328,
2009-08-20, 01:05:05,VALID,1005.23,VALID,0,VALID,88.8612,VALID,0,VALID,24.9106,VALID,356,VALID,0.46875,
2009-08-20, 01:06:05,VALID,1005.24,VALID,0,VALID,89.2426,VALID,0.100563,VALID,24.8308,VALID,357,VALID,0.589063,
2009-08-20, 01:07:05,VALID,1005.19,VALID,0,VALID,89.5859,VALID,0.100563,VALID,24.7335,VALID,357,VALID,0.422656,
2009-08-20, 01:08:05,VALID,1005.21,VALID,0,VALID,89.853,VALID,0,VALID,24.675,VALID,357,VALID,0.386719,
2009-08-20, 01:09:05,VALID,1005.2,VALID,0,VALID,90.0589,VALID,0,VALID,24.6769,VALID,345,VALID,0.796094,
2009-08-20, 01:10:05,VALID,1005.19,VALID,0,VALID,90.2039,VALID,0,VALID,24.6361,VALID,342,VALID,0.330859,
2009-08-20, 01:11:05,VALID,1005.17,VALID,0,VALID,90.2802,VALID,0,VALID,24.6574,VALID,321,VALID,0.309766,
2009-08-20, 01:12:05,VALID,1005.14,VALID,0,VALID,90.3031,VALID,0,VALID,24.6166,VALID,321,VALID,0,
2009-08-20, 01:13:05,VALID,1005.12,VALID,0,VALID,90.3946,VALID,0,VALID,24.6185,VALID,321,VALID,0.00234375,
2009-08-20, 01:14:05,VALID,1005.1,VALID,0,VALID,90.509,VALID,0,VALID,24.6185,VALID,321,VALID,0.00195313,
2009-08-20, 01:15:05,VALID,1005.06,VALID,0,VALID,90.6082,VALID,0,VALID,24.6185,VALID,322,VALID,0.435547,
2009-08-20, 01:16:05,VALID,1005.07,VALID,0,VALID,90.6235,VALID,0,VALID,24.5972,VALID,334,VALID,0.349219,
2009-08-20, 01:17:05,VALID,1005.04,VALID,0,VALID,90.6235,VALID,0,VALID,24.599,VALID,334,VALID,0.154687,
2009-08-20, 01:18:05,VALID,1005.04,VALID,0,VALID,90.6692,VALID,0,VALID,24.5777,VALID,334,VALID,0,
2009-08-20, 01:19:05,VALID,1005,VALID,0,VALID,90.715,VALID,0,VALID,24.5777,VALID,334,VALID,0,
2009-08-20, 01:20:05,VALID,1005,VALID,0,VALID,90.7226,VALID,0.100563,VALID,24.5777,VALID,334,VALID,0.239453,
2009-08-20, 01:21:05,VALID,1005.01,VALID,0,VALID,90.715,VALID,0,VALID,24.5601,VALID,334,VALID,0.205859,
2009-08-20, 01:22:05,VALID,1005.01,VALID,0,VALID,90.7074,VALID,0.100563,VALID,24.5582,VALID,334,VALID,0.0242187,
2009-08-20, 01:23:05,VALID,1004.99,VALID,0,VALID,90.6692,VALID,0,VALID,24.5796,VALID,332,VALID,0,
2009-08-20, 01:24:05,VALID,1004.95,VALID,0,VALID,90.715,VALID,0.100563,VALID,24.5796,VALID,332,VALID,0,
2009-08-20, 01:25:05,VALID,1004.97,VALID,0,VALID,90.7303,VALID,0.100563,VALID,24.5796,VALID,331,VALID,0,
2009-08-20, 01:26:05,VALID,1004.94,VALID,0,VALID,90.7226,VALID,0,VALID,24.5388,VALID,330,VALID,0,
2009-08-20, 01:27:05,VALID,1004.9,VALID,0,VALID,90.6769,VALID,0,VALID,24.5388,VALID,330,VALID,0,
2009-08-20, 01:28:05,VALID,1004.89,VALID,0,VALID,90.6006,VALID,0,VALID,24.5601,VALID,330,VALID,0,
2009-08-20, 01:29:05,VALID,1004.88,VALID,0,VALID,90.5167,VALID,0,VALID,24.5601,VALID,330,VALID,0,
2009-08-20, 01:30:05,VALID,1004.89,VALID,0,VALID,90.4022,VALID,0,VALID,24.5601,VALID,329,VALID,0,
2009-08-20, 01:31:05,VALID,1004.85,VALID,0,VALID,90.4022,VALID,0,VALID,24.5814,VALID,329,VALID,0,
2009-08-20, 01:32:05,VALID,1004.86,VALID,0,VALID,90.3793,VALID,0,VALID,24.5601,VALID,329,VALID,0,
2009-08-20, 01:33:05,VALID,1004.85,VALID,0,VALID,90.4022,VALID,0,VALID,24.5601,VALID,329,VALID,0,
2009-08-20, 01:34:05,VALID,1004.84,VALID,0,VALID,90.3259,VALID,0,VALID,24.5406,VALID,329,VALID,0,
2009-08-20, 01:35:05,VALID,1004.83,VALID,0,VALID,90.3183,VALID,0,VALID,24.5406,VALID,329,VALID,0,
2009-08-20, 01:36:05,VALID,1004.85,VALID,0,VALID,90.3412,VALID,0,VALID,24.5212,VALID,329,VALID,0,
2009-08-20, 01:37:05,VALID,1004.83,VALID,0,VALID,90.3031,VALID,0,VALID,24.5212,VALID,329,VALID,0,
2009-08-20, 01:38:05,VALID,1004.84,VALID,0,VALID,90.3336,VALID,0,VALID,24.5017,VALID,329,VALID,0,
2009-08-20, 01:39:05,VALID,1004.82,VALID,0,VALID,90.3717,VALID,0,VALID,24.5212,VALID,329,VALID,0,
2009-08-20, 01:40:05,VALID,1004.82,VALID,0,VALID,90.387,VALID,0,VALID,24.5212,VALID,329,VALID,0,
2009-08-20, 01:41:05,VALID,1004.83,VALID,0,VALID,90.3488,VALID,0,VALID,24.5212,VALID,329,VALID,0,
2009-08-20, 01:42:05,VALID,1004.82,VALID,0,VALID,90.4327,VALID,0,VALID,24.5017,VALID,329,VALID,0,
2009-08-20, 01:43:05,VALID,1004.79,VALID,0,VALID,90.4556,VALID,0,VALID,24.4822,VALID,329,VALID,0,
2009-08-20, 01:44:05,VALID,1004.75,VALID,0,VALID,90.4862,VALID,0,VALID,24.422,VALID,329,VALID,0,
2009-08-20, 01:45:05,VALID,1004.74,VALID,0,VALID,90.593,VALID,0,VALID,24.4043,VALID,329,VALID,0,
2009-08-20, 01:46:05,VALID,1004.79,VALID,0,VALID,90.776,VALID,0,VALID,24.3654,VALID,329,VALID,0,
2009-08-20, 01:47:05,VALID,1004.77,VALID,0,VALID,90.8905,VALID,0,VALID,24.307,VALID,329,VALID,0,
2009-08-20, 01:48:05,VALID,1004.78,VALID,0,VALID,91.0965,VALID,0,VALID,24.2681,VALID,332,VALID,0,
2009-08-20, 01:49:05,VALID,1004.78,VALID,0,VALID,91.2567,VALID,0,VALID,24.1902,VALID,7,VALID,0,
2009-08-20, 01:50:05,VALID,1004.81,VALID,0,VALID,91.4092,VALID,0,VALID,24.1513,VALID,7,VALID,0,
2009-08-20, 01:51:05,VALID,1004.8,VALID,0,VALID,91.5771,VALID,0,VALID,24.1123,VALID,7,VALID,0,
2009-08-20, 01:52:05,VALID,1004.83,VALID,0,VALID,91.8212,VALID,0,VALID,24.0734,VALID,7,VALID,0,
2009-08-20, 01:53:05,VALID,1004.8,VALID,0,VALID,91.9967,VALID,0,VALID,24.0752,VALID,7,VALID,0,
2009-08-20, 01:54:05,VALID,1004.79,VALID,0,VALID,92.1645,VALID,0,VALID,24.0345,VALID,7,VALID,0,
2009-08-20, 01:55:05,VALID,1004.78,VALID,0,VALID,92.3171,VALID,0,VALID,24.015,VALID,7,VALID,0,
2009-08-20, 01:56:05,VALID,1004.76,VALID,0,VALID,92.4239,VALID,0,VALID,24.015,VALID,7,VALID,0,
2009-08-20, 01:57:05,VALID,1004.77,VALID,0,VALID,92.5383,VALID,0,VALID,24.0168,VALID,7,VALID,0,
2009-08-20, 01:58:05,VALID,1004.72,VALID,0,VALID,92.6299,VALID,0,VALID,23.9937,VALID,7,VALID,0,
2009-08-20, 01:59:05,VALID,1004.72,VALID,0,VALID,92.7596,VALID,0,VALID,24.0132,VALID,7,VALID,0,
2009-08-20, 02:00:05,VALID,1004.69,VALID,0,VALID,92.8816,VALID,0,VALID,23.9937,VALID,7,VALID,0,
2009-08-20, 02:01:05,VALID,1004.68,VALID,0,VALID,92.935,VALID,0,VALID,24.0132,VALID,7,VALID,0,
2009-08-20, 02:02:05,VALID,1004.69,VALID,0,VALID,93.0266,VALID,0.100563,VALID,24.0132,VALID,7,VALID,0,
2009-08-20, 02:03:05,VALID,1004.71,VALID,0,VALID,92.9884,VALID,0,VALID,24.0521,VALID,7,VALID,0,
2009-08-20, 02:04:05,VALID,1004.68,VALID,0,VALID,92.9274,VALID,0,VALID,24.0326,VALID,350,VALID,0,
2009-08-20, 02:05:05,VALID,1004.68,VALID,0,VALID,92.8358,VALID,0.100563,VALID,24.0521,VALID,350,VALID,0,
2009-08-20, 02:06:05,VALID,1004.7,VALID,0,VALID,92.7519,VALID,0.100563,VALID,24.091,VALID,350,VALID,0,
2009-08-20, 02:07:05,VALID,1004.73,VALID,0,VALID,92.6604,VALID,0,VALID,24.1318,VALID,350,VALID,0,
2009-08-20, 02:08:05,VALID,1004.73,VALID,0,VALID,92.5154,VALID,0.100563,VALID,24.13,VALID,350,VALID,0,
2009-08-20, 02:09:05,VALID,1004.72,VALID,0,VALID,92.3171,VALID,0.100563,VALID,24.1689,VALID,347,VALID,0,
2009-08-20, 02:10:05,VALID,1004.74,VALID,0,VALID,92.0348,VALID,0.100563,VALID,24.2078,VALID,346,VALID,0,
2009-08-20, 02:11:05,VALID,1004.71,VALID,0,VALID,91.6763,VALID,0.100563,VALID,24.2662,VALID,347,VALID,0.406641,
2009-08-20, 02:12:05,VALID,1004.7,VALID,0,VALID,91.2796,VALID,0,VALID,24.3654,VALID,346,VALID,0.291406,
2009-08-20, 02:13:05,VALID,1004.69,VALID,0,VALID,90.8218,VALID,0,VALID,24.4043,VALID,349,VALID,0.892187,
2009-08-20, 02:14:05,VALID,1004.65,VALID,0,VALID,90.2497,VALID,0,VALID,24.5017,VALID,353,VALID,1.22617,
2009-08-20, 02:15:05,VALID,1004.63,VALID,0,VALID,89.38,VALID,0,VALID,24.6185,VALID,347,VALID,1.00391,
2009-08-20, 02:16:05,VALID,1004.63,VALID,0,VALID,88.7849,VALID,0,VALID,24.7353,VALID,338,VALID,0.476172,
2009-08-20, 02:17:05,VALID,1004.59,VALID,0,VALID,88.4874,VALID,0,VALID,24.7937,VALID,340,VALID,0.383594,
2009-08-20, 02:18:05,VALID,1004.58,VALID,0,VALID,88.1212,VALID,0,VALID,24.8308,VALID,348,VALID,0.571094,
2009-08-20, 02:19:05,VALID,1004.6,VALID,0,VALID,87.7474,VALID,0,VALID,24.8697,VALID,351,VALID,0.688672,
2009-08-20, 02:20:05,VALID,1004.56,VALID,0,VALID,87.4575,VALID,0,VALID,24.9106,VALID,341,VALID,0.620313,
2009-08-20, 02:21:05,VALID,1004.55,VALID,0,VALID,87.2134,VALID,0,VALID,24.9495,VALID,347,VALID,1.1457,
2009-08-20, 02:22:05,VALID,1004.54,VALID,0,VALID,87.1371,VALID,0,VALID,24.969,VALID,330,VALID,0.992969,
2009-08-20, 02:23:05,VALID,1004.51,VALID,0,VALID,87.282,VALID,0,VALID,24.969,VALID,342,VALID,0.174219,
2009-08-20, 02:24:05,VALID,1004.46,VALID,0,VALID,87.1371,VALID,0,VALID,25.0079,VALID,344,VALID,0.517187,
2009-08-20, 02:25:05,VALID,1004.44,VALID,0,VALID,87.2134,VALID,0,VALID,24.9885,VALID,353,VALID,0.270703,
2009-08-20, 02:26:05,VALID,1004.46,VALID,0,VALID,87.1828,VALID,0,VALID,25.0293,VALID,351,VALID,0.00742187,
2009-08-20, 02:27:05,VALID,1004.44,VALID,0,VALID,87.1066,VALID,0,VALID,24.9885,VALID,315,VALID,0.241406,
2009-08-20, 02:28:05,VALID,1004.45,VALID,0,VALID,87.076,VALID,0,VALID,24.9866,VALID,315,VALID,0.172266,
2009-08-20, 02:29:05,VALID,1004.43,VALID,0,VALID,87.1142,VALID,0,VALID,25.0079,VALID,332,VALID,0.0777344,
2009-08-20, 02:30:05,VALID,1004.4,VALID,0,VALID,87.1676,VALID,0,VALID,25.0079,VALID,336,VALID,0.185156,
2009-08-20, 02:31:05,VALID,1004.42,VALID,0,VALID,87.0608,VALID,0,VALID,25.0079,VALID,345,VALID,0.585547,
2009-08-20, 02:32:05,VALID,1004.39,VALID,0,VALID,86.9387,VALID,0,VALID,25.0079,VALID,348,VALID,0.362109,
2009-08-20, 02:33:05,VALID,1004.39,VALID,0,VALID,87.0532,VALID,0,VALID,25.0079,VALID,348,VALID,0.144922,
2009-08-20, 02:34:05,VALID,1004.39,VALID,0,VALID,87.1523,VALID,0,VALID,25.0079,VALID,324,VALID,0.228516,
2009-08-20, 02:35:05,VALID,1004.41,VALID,0,VALID,87.1447,VALID,0,VALID,25.0079,VALID,343,VALID,0.405859,
2009-08-20, 02:36:05,VALID,1004.39,VALID,0,VALID,87.221,VALID,0,VALID,25.0079,VALID,306,VALID,0.0542969,
2009-08-20, 02:37:05,VALID,1004.38,VALID,0,VALID,87.282,VALID,0,VALID,24.9885,VALID,325,VALID,0.303125,
2009-08-20, 02:38:05,VALID,1004.39,VALID,0,VALID,87.343,VALID,0,VALID,24.9885,VALID,336,VALID,0.605469,
2009-08-20, 02:39:05,VALID,1004.39,VALID,0,VALID,87.3278,VALID,0,VALID,24.9885,VALID,345,VALID,0.479688,
2009-08-20, 02:40:05,VALID,1004.39,VALID,0,VALID,87.2668,VALID,0,VALID,24.9885,VALID,307,VALID,0.401953,
2009-08-20, 02:41:05,VALID,1004.41,VALID,0,VALID,87.4499,VALID,0,VALID,24.9885,VALID,307,VALID,0,
2009-08-20, 02:42:05,VALID,1004.44,VALID,0,VALID,87.427,VALID,0,VALID,24.9885,VALID,307,VALID,0.0132813,
2009-08-20, 02:43:05,VALID,1004.43,VALID,0,VALID,87.427,VALID,0,VALID,24.9671,VALID,322,VALID,0.232031,
2009-08-20, 02:44:05,VALID,1004.42,VALID,0,VALID,87.4956,VALID,0,VALID,24.9457,VALID,322,VALID,0.33125,
2009-08-20, 02:45:05,VALID,1004.46,VALID,0,VALID,87.5109,VALID,0,VALID,24.9671,VALID,326,VALID,0.259766,
2009-08-20, 02:46:05,VALID,1004.49,VALID,0,VALID,87.7016,VALID,0.100563,VALID,24.9671,VALID,288,VALID,0.0871094,
2009-08-20, 02:47:05,VALID,1004.46,VALID,0,VALID,87.7016,VALID,0,VALID,24.9671,VALID,288,VALID,0.222656,
2009-08-20, 02:48:05,VALID,1004.46,VALID,0,VALID,87.4727,VALID,0.100563,VALID,24.9457,VALID,296,VALID,0.223438,
2009-08-20, 02:49:05,VALID,1004.44,VALID,0,VALID,87.5261,VALID,0.100563,VALID,24.9866,VALID,300,VALID,0.112891,
2009-08-20, 02:50:05,VALID,1004.48,VALID,0,VALID,87.3278,VALID,0,VALID,24.9866,VALID,299,VALID,0.559375,
2009-08-20, 02:51:05,VALID,1004.48,VALID,0,VALID,87.3888,VALID,0.100563,VALID,25.006,VALID,291,VALID,0.183984,
2009-08-20, 02:52:05,VALID,1004.49,VALID,0,VALID,87.3507,VALID,0,VALID,25.0469,VALID,293,VALID,0.4,
2009-08-20, 02:53:05,VALID,1004.5,VALID,0,VALID,87.16,VALID,0.100563,VALID,25.045,VALID,294,VALID,0.252344,
2009-08-20, 02:54:05,VALID,1004.49,VALID,0,VALID,87.0226,VALID,0.100563,VALID,25.0431,VALID,302,VALID,0.513281,
2009-08-20, 02:55:05,VALID,1004.46,VALID,0,VALID,87.1676,VALID,0.100563,VALID,25.0644,VALID,292,VALID,0.1625,
2009-08-20, 02:56:05,VALID,1004.46,VALID,0,VALID,87.0379,VALID,0,VALID,25.0644,VALID,292,VALID,0.3875,
2009-08-20, 02:57:05,VALID,1004.44,VALID,0,VALID,86.9464,VALID,0.100563,VALID,25.0858,VALID,292,VALID,0.500781,
2009-08-20, 02:58:05,VALID,1004.43,VALID,0,VALID,86.9769,VALID,0,VALID,25.0858,VALID,292,VALID,0.00195313,
2009-08-20, 02:59:04,VALID,1004.43,VALID,0,VALID,87.1066,VALID,0,VALID,25.0858,VALID,292,VALID,0.00078125,
2009-08-20, 03:00:04,VALID,1004.45,VALID,0,VALID,86.9921,VALID,0,VALID,25.1053,VALID,292,VALID,0.0117188,
2009-08-20, 03:01:04,VALID,1004.44,VALID,0,VALID,87.0074,VALID,0,VALID,25.0431,VALID,292,VALID,0,
2009-08-20, 03:02:04,VALID,1004.42,VALID,0,VALID,87.0608,VALID,0,VALID,25.0663,VALID,295,VALID,0.00742187,
2009-08-20, 03:03:04,VALID,1004.42,VALID,0,VALID,87.076,VALID,0,VALID,25.0663,VALID,316,VALID,0.163672,
2009-08-20, 03:04:04,VALID,1004.46,VALID,0,VALID,87.3049,VALID,0,VALID,25.0663,VALID,316,VALID,0.0886719,
2009-08-20, 03:05:04,VALID,1004.46,VALID,0,VALID,87.4346,VALID,0,VALID,25.0255,VALID,316,VALID,0,
2009-08-20, 03:06:04,VALID,1004.45,VALID,0,VALID,87.6101,VALID,0,VALID,25.0274,VALID,316,VALID,0,
2009-08-20, 03:07:04,VALID,1004.44,VALID,0,VALID,87.755,VALID,0,VALID,24.9885,VALID,316,VALID,0,
2009-08-20, 03:08:04,VALID,1004.43,VALID,0,VALID,87.9076,VALID,0,VALID,24.9476,VALID,316,VALID,0,
2009-08-20, 03:09:04,VALID,1004.42,VALID,0,VALID,88.2967,VALID,0,VALID,24.9495,VALID,316,VALID,0,
2009-08-20, 03:10:04,VALID,1004.43,VALID,0,VALID,88.64,VALID,0,VALID,24.9106,VALID,316,VALID,0,
2009-08-20, 03:11:04,VALID,1004.41,VALID,0,VALID,88.8917,VALID,0,VALID,24.8911,VALID,316,VALID,0,
2009-08-20, 03:12:04,VALID,1004.42,VALID,0,VALID,89.0214,VALID,0,VALID,24.8522,VALID,316,VALID,0,
2009-08-20, 03:13:04,VALID,1004.42,VALID,0,VALID,89.0977,VALID,0,VALID,24.8327,VALID,316,VALID,0,
2009-08-20, 03:14:04,VALID,1004.45,VALID,0,VALID,89.1816,VALID,0,VALID,24.8132,VALID,316,VALID,0,
2009-08-20, 03:15:04,VALID,1004.49,VALID,0,VALID,89.2198,VALID,0,VALID,24.7353,VALID,316,VALID,0.0117188,
2009-08-20, 03:16:04,VALID,1004.49,VALID,0,VALID,89.5707,VALID,0,VALID,24.6769,VALID,316,VALID,0.312891,
2009-08-20, 03:17:04,VALID,1004.51,VALID,0,VALID,89.8148,VALID,0,VALID,24.599,VALID,316,VALID,0.394141,
2009-08-20, 03:18:04,VALID,1004.54,VALID,0,VALID,90.1734,VALID,0,VALID,24.5406,VALID,316,VALID,0.332812,
2009-08-20, 03:19:04,VALID,1004.54,VALID,0,VALID,90.4938,VALID,0,VALID,24.4822,VALID,316,VALID,0.371484,
2009-08-20, 03:20:04,VALID,1004.52,VALID,0,VALID,90.6921,VALID,0,VALID,24.4238,VALID,316,VALID,0.403906,
2009-08-20, 03:21:04,VALID,1004.54,VALID,0,VALID,90.8752,VALID,0,VALID,24.3654,VALID,316,VALID,0.309766,
2009-08-20, 03:22:04,VALID,1004.55,VALID,0,VALID,91.0736,VALID,0,VALID,24.3459,VALID,316,VALID,0.319141,
2009-08-20, 03:23:04,VALID,1004.53,VALID,0,VALID,91.2719,VALID,0,VALID,24.2875,VALID,327,VALID,0.53125,
2009-08-20, 03:24:04,VALID,1004.55,VALID,0,VALID,91.5008,VALID,0,VALID,24.2681,VALID,330,VALID,0.505859,
2009-08-20, 03:25:04,VALID,1004.56,VALID,0,VALID,91.6915,VALID,0,VALID,24.2504,VALID,330,VALID,0.407813,
2009-08-20, 03:26:04,VALID,1004.58,VALID,0,VALID,91.8288,VALID,0,VALID,24.1707,VALID,339,VALID,0.608984,
2009-08-20, 03:27:04,VALID,1004.57,VALID,0,VALID,91.989,VALID,0,VALID,24.1513,VALID,339,VALID,0.554297,
2009-08-20, 03:28:04,VALID,1004.61,VALID,0,VALID,92.1416,VALID,0,VALID,24.1123,VALID,339,VALID,0.401953,
2009-08-20, 03:29:04,VALID,1004.63,VALID,0,VALID,92.2408,VALID,0,VALID,24.0929,VALID,339,VALID,0.466016,
2009-08-20, 03:30:04,VALID,1004.62,VALID,0,VALID,92.3857,VALID,0,VALID,24.0345,VALID,342,VALID,0.576953,
2009-08-20, 03:31:04,VALID,1004.62,VALID,0,VALID,92.5002,VALID,0,VALID,24.0345,VALID,347,VALID,0.413672,
2009-08-20, 03:32:04,VALID,1004.64,VALID,0,VALID,92.5917,VALID,0,VALID,24.0363,VALID,347,VALID,0.451562,
2009-08-20, 03:33:04,VALID,1004.66,VALID,0,VALID,92.6299,VALID,0,VALID,24.0363,VALID,347,VALID,0.570703,
2009-08-20, 03:34:04,VALID,1004.63,VALID,0,VALID,92.6909,VALID,0,VALID,23.9955,VALID,347,VALID,0.561719,
2009-08-20, 03:35:04,VALID,1004.65,VALID,0,VALID,92.7596,VALID,0,VALID,24.015,VALID,347,VALID,0.480859,
2009-08-20, 03:36:04,VALID,1004.64,VALID,0,VALID,92.8358,VALID,0,VALID,23.9742,VALID,347,VALID,0.403516,
2009-08-20, 03:37:04,VALID,1004.63,VALID,0,VALID,92.874,VALID,0,VALID,23.9742,VALID,347,VALID,0.400391,
2009-08-20, 03:38:04,VALID,1004.64,VALID,0,VALID,92.935,VALID,0,VALID,23.9353,VALID,347,VALID,0.412891,
2009-08-20, 03:39:04,VALID,1004.64,VALID,0,VALID,92.9808,VALID,0,VALID,23.9353,VALID,347,VALID,0.347266,
2009-08-20, 03:40:04,VALID,1004.64,VALID,0,VALID,93.0495,VALID,0,VALID,23.9761,VALID,347,VALID,0.494922,
2009-08-20, 03:41:04,VALID,1004.62,VALID,0,VALID,93.141,VALID,0,VALID,23.9761,VALID,347,VALID,0.492969,
2009-08-20, 03:42:04,VALID,1004.63,VALID,0,VALID,93.1944,VALID,0,VALID,23.9761,VALID,347,VALID,0.447656,
2009-08-20, 03:43:04,VALID,1004.62,VALID,0,VALID,93.2402,VALID,0,VALID,23.9761,VALID,347,VALID,0.429688,
2009-08-20, 03:44:04,VALID,1004.62,VALID,0,VALID,93.2554,VALID,0,VALID,23.9955,VALID,347,VALID,0.375391,
2009-08-20, 03:45:04,VALID,1004.64,VALID,0,VALID,93.2936,VALID,0,VALID,24.015,VALID,347,VALID,0.505078,
2009-08-20, 03:46:04,VALID,1004.66,VALID,0,VALID,93.3165,VALID,0,VALID,24.0132,VALID,346,VALID,0.482422,
2009-08-20, 03:47:04,VALID,1004.71,VALID,0,VALID,93.3165,VALID,0,VALID,24.0539,VALID,345,VALID,0.399219,